Regional Weather Roundup
Issued by NWS

Home | Current Version | Previous Version | Graphics & Text | Print | Product List | Glossary On
Versions: 1 2 3 4 5 6 7 8 9 10 11 12 13 14 15 16 17 18 19 20 21 22 23 24 25 26 27 28 29 30 31 32 33 34 35 36 37 38 39 40 41 42 43 44 45 46 47 48 49 50
000
ASUS45 KABQ 250101
RWRNM
NEW MEXICO REGIONAL WEATHER ROUNDUP
NATIONAL WEATHER SERVICE ALBUQUERQUE NM
700 PM MDT FRI MAR 24 2017

NOTE: "FAIR" MEANS FEW OR NO CLOUDS BELOW 12,000 FEET AGL WITH NO
       SIGNIFICANT WEATHER OR OBSTRUCTIONS TO VISION.

      THIS PRODUCT IS RELEASED AS TWO VERSIONS.  ONE VERSION NEAR
      THE TOP OF THE HOUR CONTAINING PRELIMINARY DATA FROM ALBUQUERQUE
      AND OTHER STATIONS.  A FINAL VERSION WITH ADDITIONAL DATA IS
      ISSUED ABOUT 10 MINUTES AFTER THE HOUR.

NMZ501-503-504-510>518-250200-
NORTHWEST PLATEAU/NORTHCENTRAL MOUNTAINS

CITY           SKY/WX    TMP DP  RH WIND       PRES   REMARKS
FARMINGTON     FAIR      60  21  22 W21G29    30.08R
LOS ALAMOS     FAIR      55  24  30 W5        30.14R
SANTA FE       FAIR      57  28  33 N9        30.09R
TAOS             N/A     46  27  46 N6        30.15R
ANGEL FIRE     FAIR      38  30  73 NW3       30.16R

$$
NMZ402-403-502-505>509-250200-
WESTCENTRAL MOUNTAINS/SOUTHWEST MOUNTAINS

CITY           SKY/WX    TMP DP  RH WIND       PRES   REMARKS
GALLUP         FAIR      57  19  22 W15       30.18R
GRANTS         FAIR      58  21  24 NW17G24   30.16R
SILVER CITY    FAIR      61  28  28 W17G23    30.14R

$$
NMZ407-409-411-412-250200-
SOUTHERN DESERTS

CITY           SKY/WX    TMP DP  RH WIND       PRES   REMARKS
DEMING         FAIR      67  24  19 W18G26    30.08R
LAS CRUCES     FAIR      67  24  20 W21G29    30.07S
HOLLOMAN AFB   FAIR      71  19  14 CALM      30.06R
ALAMOGORDO     FAIR      70  19  14 NE3       30.04S
T OR C         FAIR      70  14  11 NW13      30.05R

$$
NMZ519>523-250200-
CENTRAL VALLEYS/CENTRAL HIGHLANDS

CITY           SKY/WX    TMP DP  RH WIND       PRES   REMARKS
ALBUQUERQUE    FAIR      65  17  15 NW21G30   30.06R
DOUBLE EAGLE   CLEAR     63  19  19 NW20G26   30.10R
MORIARTY ARPT  FAIR      60  25  26 NW12      30.11R
CLINES CORNERS FAIR      53  26  35 NW8       30.13R
BELEN          FAIR      66  16  14 N8        30.07R
SOCORRO        FAIR      67  22  18 W12G20    30.06R

$$
NMZ524>526-539-540-250200-
SOUTHCENTRAL MOUNTAINS

CITY           SKY/WX    TMP DP  RH WIND       PRES   REMARKS
RUIDOSO        NOT AVBL

$$
NMZ527>531-250200-
NORTHEAST HIGHLANDS/NORTHEAST PLAINS

CITY           SKY/WX    TMP DP  RH WIND       PRES   REMARKS
LAS VEGAS      FAIR      44  27  51 NE15      30.11R
RATON          NOT AVBL
CLAYTON        CLOUDY    44  36  73 N25G40    30.05S

$$
NMZ532>537-250200-
EASTCENTRAL PLAINS

CITY           SKY/WX    TMP DP  RH WIND       PRES   REMARKS
TUCUMCARI      FAIR      54  30  40 N29G44    30.04R
CANNON AFB     FAIR      53  29  39 N26G39    30.05R
CLOVIS AIRPORT FAIR      54  28  37 N29G36    30.06R

$$
NMZ028-029-538-250200-
SOUTHEAST PLAINS

CITY           SKY/WX    TMP DP  RH WIND       PRES   REMARKS
ROSWELL        FAIR      66  28  24 NE13      30.02
ARTESIA        FAIR      68  30  24 NE13G20   30.00R
CARLSBAD       FAIR      72  29  20 NE15G24   29.96R
HOBBS          FAIR      63  25  23 N21       30.02R


$$




USA.gov is the U.S. government's official web portal to all federal, state and local government web resources and services.